sat.trackr.live / text

‹ back to catalog

STARLINK-37660

NORAD 69132 · 2026-110J

PAYLOAD ACTIVE UNKNOWN

§ Identity

Operator
Country
US
Launch date
2026-05-20
Launch site
AFWTR
Launch vehicle
Mass (kg)
RCS (m²)

Purposes: comms

External: N2YO · Heavens-Above · Gunter

§ Orbital elements

Epoch: 2026-09-18T19:06:08.923104Z

Period
93.91 min
Inclination
97.2870°
Eccentricity
0.0002421
Mean motion
15.33448043 rev/d
Perigee alt
463.9 km
Apogee alt
467.2 km
Semi-major
6,843.7 km
B*
4.2559e-4
RAAN
96.8582°
Arg perigee
95.8271°
Mean anomaly
264.3248°
Rev number
1,995

§ Raw data

STARLINK-376601 69132U 26110J   26261.79593661  .00013692  00000+0  42559-3 0  99922 69132  97.2870  96.8582 0002421  95.8271 264.3248 15.33448043 19953

JSON: /api/v1/satellites/69132 · /tle

For live sub-satellite position, see the globe view (requires WebGL).

§ Visibility from observer

Set your observer location to see the next 7 days of passes ≥ 10°. The values pass through the URL so the page stays shareable.

No JS? Fill the form by hand. The geolocation button needs JavaScript.